MUOS 4

导读

MUOS 4是美国海军新一代移动通信卫星系统“移动用户目标系统”的第四颗卫星,于2015年9月2日由联合发射联盟“宇宙神”5-551型火箭,从卡纳维拉尔角空军站发射升空。卫星由洛马航天系统公司建造,搭载特高频窄带和宽带有效载荷,可为美军机动部队及海上舰船提供比前代系统快10倍以上的移动通信服务。

基本信息
目录编号:
40887
目录名称:
MUOS 4
国际标识:
2015-044A
轨道中心:
EARTH
卫星名称:
MUOS 4
卫星全名:
--
卫星状态:
在轨 (已飞行3945 天)
发射日期:
2015-09-02 UTC
国别 :
美国 (US)
星等 :
--
轨道信息
数据来源 国际轨道数据 AOE轨道数据
星历时间 2026-06-20T12:37:54+0800
21小时前
查看轨道信息
2026-06-21T04:00:00+0800
6小时前
查看轨道信息
半长轴 42164.812km 42164.728km
偏心率 0.0057873 0.0058057
轨道倾角 4.336° 4.337°
近地点辐角 2.380° 2.352°
升交点赤经 42.273° 42.279°
平近点角 8.209° 239.385°
近地点 35542.654km 35541.795km
远地点 36030.696km 36031.387km
周期 1436.101分钟 1436.097分钟
每日圈数 1.002715 1.002718
详细信息
使用方式:
暂无
2D轨道图
3D轨道图
轨道高度分析图
轨道倾角分析图
轨道综合分析图
查看轨道综合分析图